W6ZZY Weather Reports


time (UTC)temp
C
wind
direction
speed
KPH
gust
KPH
rain 1hr
cm
rain 24hr
cm
rain mn
cm
humidity
%
barometer
mb
20260506155035 14 209 1.6 4.8 0.00 0.00 0.00 87 1023.5
20260506154030 13 187 3.2 4.8 0.00 0.00 0.00 89 1023.3
20260506153024 13 172 0.0 1.6 0.00 0.00 0.00 92 1023.3
20260506152020 12 198 1.6 4.8 0.00 0.00 0.00 93 1023.2
20260506151035 12 199 0.0 1.6 0.00 0.00 0.00 92 1023.3
20260506150030 12 191 0.0 1.6 0.00 0.00 0.00 93 1023.3
20260506145025 12 197 0.0 3.2 0.00 0.00 0.00 94 1023.2
20260506144043 12 204 1.6 3.2 0.00 0.00 0.00 94 1023.1
20260506143035 11 212 0.0 1.6 0.00 0.03 0.00 94 1023.2
20260506142029 11 0.0 0.0 0.00 0.03 0.00 94 1023.0
20260506141023 11 0.0 0.0 0.00 0.03 0.00 94 1022.9
20260506140038 11 0.0 0.0 0.00 0.03 0.00 94 1022.7
20260506135052 11 0.0 0.0 0.00 0.03 0.00 94 1022.6
20260506134027 11 0.0 0.0 0.00 0.03 0.00 94 1022.7
20260506133022 11 0.0 0.0 0.00 0.03 0.00 93 1022.6
20260506132017 11 0.0 0.0 0.00 0.03 0.00 93 1022.5
20260506131032 11 0.0 0.0 0.00 0.03 0.00 93 1022.5
20260506130027 11 0.0 0.0 0.00 0.03 0.00 92 1022.3
20260506125022 11 0.0 0.0 0.00 0.03 0.00 92 1022.4
20260506124017 11 0.0 0.0 0.00 0.03 0.00 92 1022.3
20260506123052 11 0.0 0.0 0.00 0.03 0.00 92 1022.3
20260506122026 11 0.0 0.0 0.00 0.03 0.00 92 1022.3
20260506121023 11 218 0.0 1.6 0.00 0.03 0.00 92 1022.2
20260506120015 11 0.0 0.0 0.00 0.03 0.00 92 1022.1
20260506115031 11 0.0 0.0 0.00 0.03 0.00 92 1022.1
20260506114025 11 239 0.0 1.6 0.00 0.03 0.00 92 1022.0
20260506113020 11 0.0 0.0 0.00 0.03 0.00 92 1022.0
20260506112055 11 210 0.0 1.6 0.00 0.03 0.00 92 1021.9
20260506111029 11 220 0.0 1.6 0.00 0.03 0.00 92 1021.8
20260506110024 11 0.0 0.0 0.00 0.03 0.00 92 1021.6
20260506105019 11 204 0.0 1.6 0.00 0.03 0.00 92 1021.8
20260506104033 11 0.0 0.0 0.00 0.03 0.00 92 1021.6
20260506103029 11 213 0.0 1.6 0.00 0.03 0.00 92 1021.7
20260506102044 11 0.0 0.0 0.00 0.03 0.00 92 1021.6
20260506101017 11 0.0 0.0 0.00 0.03 0.00 92 1021.6
20260506100032 11 182 0.0 1.6 0.00 0.03 0.00 92 1021.5
20260506095028 11 0.0 0.0 0.00 0.03 0.00 92 1021.7
20260506094022 11 182 0.0 1.6 0.00 0.03 0.00 92 1021.7
20260506093017 11 217 0.0 1.6 0.00 0.03 0.00 92 1021.7
20260506092032 11 253 0.0 1.6 0.00 0.03 0.00 92 1021.6
20260506091026 11 185 0.0 1.6 0.00 0.05 0.00 92 1021.7
20260506085016 11 0.0 0.0 0.00 0.08 0.00 92 1021.6
20260506084030 11 196 0.0 4.8 0.00 0.08 0.00 92 1021.5
20260506083025 11 181 0.0 3.2 0.00 0.08 0.00 92 1021.7
20260506082020 11 242 0.0 1.6 0.00 0.08 0.00 91 1021.7
20260506081055 11 176 0.0 1.6 0.00 0.08 0.00 91 1021.7
20260506073016 12 208 0.0 3.2 0.00 0.23 0.00 92 1021.4
20260506072031 12 213 0.0 3.2 0.00 0.25 0.00 92 1021.4
20260506071027 12 240 1.6 1.6 0.00 0.25 0.00 92 1021.3
20260506062027 12 179 0.0 3.2 0.00 0.30 0.28 93 1020.9
20260506061022 12 202 0.0 3.2 0.00 0.33 0.28 93 1020.8
20260506051030 11 184 1.6 4.8 0.00 0.48 0.28 95 1020.6
20260506045020 11 173 1.6 6.4 0.00 0.51 0.28 95 1020.4
20260506044035 11 162 0.0 3.2 0.00 0.53 0.28 95 1020.2
20260506043030 11 162 0.0 1.6 0.00 0.56 0.28 95 1020.3
20260506042024 11 172 0.0 1.6 0.00 0.56 0.28 94 1020.0
20260506041019 11 181 0.0 1.6 0.00 0.61 0.28 94 1020.0
20260506040034 11 210 0.0 1.6 0.00 0.61 0.28 94 1020.0
20260506035029 12 183 1.6 3.2 0.00 0.61 0.28 93 1019.9
20260506034047 12 196 1.6 1.6 0.00 0.61 0.28 93 1019.6
20260506033019 12 187 1.6 4.8 0.00 0.61 0.28 93 1019.5
20260506032054 12 157 1.6 4.8 0.00 0.64 0.28 93 1019.3
20260506031028 12 179 1.6 6.4 0.00 0.64 0.28 92 1019.1
20260506030021 12 156 1.6 3.2 0.00 0.64 0.28 92 1019.1
20260506025015 12 154 1.6 4.8 0.00 0.64 0.28 92 1019.0
20260506024052 13 163 1.6 6.4 0.00 0.64 0.28 92 1019.1
20260506023026 13 156 3.2 6.4 0.00 0.64 0.28 92 1019.0
20260506022020 13 173 3.2 9.7 0.00 0.64 0.28 92 1018.9
20260506021035 13 172 4.8 11.3 0.00 0.64 0.28 91 1018.7
20260506020031 13 214 3.2 11.3 0.00 0.64 0.28 90 1018.6
20260506015024 13 159 3.2 11.3 0.00 0.64 0.28 89 1018.5
20260506014039 13 175 4.8 11.3 0.00 0.64 0.28 89 1018.5
20260506013112 14 186 3.2 6.4 0.00 0.64 0.28 88 1018.5
20260506012028 14 168 3.2 9.7 0.00 0.64 0.28 88 1018.6
20260506011024 14 158 4.8 11.3 0.00 0.64 0.28 87 1018.6
20260506010019 15 144 3.2 9.7 0.00 0.64 0.28 87 1018.6
20260506005034 15 148 4.8 11.3 0.00 0.64 0.28 86 1018.4
20260506004029 15 156 1.6 4.8 0.00 0.64 0.28 86 1018.4
20260506003025 15 175 4.8 11.3 0.00 0.64 0.28 85 1018.3
20260506002020 15 155 3.2 11.3 0.00 0.64 0.28 86 1018.2
20260506001035 15 169 4.8 9.7 0.00 0.64 0.28 86 1018.2
20260506000028 15 166 4.8 9.7 0.00 0.64 0.28 88 1018.3
20260505235023 14 178 4.8 12.9 0.00 0.64 0.28 88 1018.3
20260505234017 14 211 3.2 12.9 0.00 0.64 0.28 89 1018.3
20260505233112 14 195 4.8 12.9 0.00 0.64 0.28 88 1018.3
20260505232045 15 187 3.2 4.8 0.00 0.64 0.28 89 1018.3
20260505231020 15 150 1.6 9.7 0.00 0.64 0.28 88 1018.3
20260505230035 15 181 4.8 6.4 0.00 0.64 0.28 87 1018.3
20260505225049 15 157 4.8 6.4 0.00 0.64 0.28 85 1018.2
20260505224103 16 118 3.2 6.4 0.00 0.64 0.28 84 1018.3
20260505223016 16 222 3.2 9.7 0.00 0.64 0.28 82 1018.3
20260505222051 16 191 4.8 14.5 0.00 0.64 0.28 81 1018.4
20260505221025 17 229 4.8 9.7 0.00 0.64 0.28 80 1018.3
20260505220020 17 206 4.8 11.3 0.00 0.64 0.28 80 1018.4
20260505215035 17 136 3.2 6.4 0.00 0.64 0.28 81 1018.4
20260505214030 17 175 4.8 12.9 0.00 0.64 0.28 80 1018.5
20260505213105 17 163 3.2 6.4 0.00 0.64 0.28 80 1018.7
20260505212019 17 130 1.6 3.2 0.00 0.64 0.28 82 1018.6
20260505211034 16 103 3.2 4.8 0.00 0.64 0.28 84 1018.6
20260505210049 15 154 3.2 4.8 0.00 0.64 0.28 86 1018.6
20260505205023 15 178 1.6 9.7 0.00 0.64 0.28 87 1018.7
20260505204018 15 208 3.2 4.8 0.00 0.64 0.28 87 1018.7
20260505203032 15 165 3.2 4.8 0.00 0.64 0.28 87 1018.6
20260505202026 15 221 3.2 9.7 0.00 0.64 0.28 86 1018.7
20260505201021 15 180 1.6 3.2 0.00 0.64 0.28 85 1018.7
20260505200015 15 177 1.6 3.2 0.00 0.64 0.28 84 1018.7
20260505195030 15 170 1.6 3.2 0.00 0.64 0.28 85 1018.6
20260505194023 15 174 3.2 4.8 0.00 0.64 0.28 86 1018.7
20260505193039 15 175 1.6 6.4 0.00 0.64 0.28 90 1018.9
20260505192033 14 164 3.2 6.4 0.00 0.64 0.28 91 1018.8
20260505191028 13 180 1.6 4.8 0.00 0.64 0.28 92 1018.7
20260505190024 13 151 1.6 6.4 0.00 0.64 0.28 91 1018.6
20260505185018 14 181 1.6 6.4 0.00 0.64 0.28 91 1018.5
20260505184033 14 174 1.6 3.2 0.00 0.64 0.28 93 1018.5
20260505183048 13 291 3.2 4.8 0.00 0.64 0.28 93 1018.6
20260505182023 13 243 1.6 3.2 0.00 0.64 0.28 95 1018.6
20260505181018 13 237 1.6 4.8 0.00 0.64 0.28 96 1018.6
20260505180032 13 203 1.6 3.2 0.00 0.64 0.28 98 1018.7
20260505175027 12 269 1.6 4.8 0.00 0.64 0.28 98 1018.3
20260505174022 12 164 0.0 1.6 0.00 0.64 0.28 98 1018.2
20260505173036 12 217 0.0 3.2 0.00 0.64 0.28 99 1018.2
20260505172032 13 151 1.6 4.8 0.00 0.64 0.28 99 1018.1
20260505171046 13 190 0.0 1.6 0.00 0.64 0.28 99 1018.3
20260505170021 12 195 0.0 3.2 0.00 0.64 0.28 99 1018.2
20260505165016 12 193 0.0 3.2 0.00 0.64 0.28 99 1018.1
20260505164031 12 162 0.0 1.6 0.00 0.64 0.28 99 1018.1
20260505163026 12 174 1.6 3.2 0.00 0.64 0.28 99 1018.2
20260505162020 12 172 0.0 1.6 0.00 0.64 0.28 99 1018.2
20260505161035 12 249 0.0 4.8 0.00 0.64 0.28 99 1018.0